Time,TemperatureF,DewpointF,PressureIn,WindDirection,WindDirectionDegrees,WindSpeedMPH,WindSpeedGustMPH,Humidity,HourlyPrecipIn,Conditions,Clouds,dailyrainin,SoftwareType,DateUTC
2013-02-28 00:03:00,38.5,36.0,30.30,ESE,123,1.0,6.0,90,0.00,,,0.00,weatherlink.com 1.10,2013-02-28 00:03:00,
2013-02-28 00:19:00,38.4,36.0,30.29,ESE,117,1.0,4.0,90,0.00,,,0.00,weatherlink.com 1.10,2013-02-28 00:19:00,
2013-02-28 00:34:00,38.0,35.0,30.29,ESE,105,2.0,4.0,90,0.00,,,0.00,weatherlink.com 1.10,2013-02-28 00:34:00,
2013-02-28 00:49:00,-999.0,-99.9,30.29,North,-999,-999.0,-999.0,-999,0.00,,,0.00,weatherlink.com 1.10,2013-02-28 00:49:00,
2013-02-28 01:04:00,-999.0,-99.9,30.29,North,-999,-999.0,-999.0,-999,0.00,,,0.00,weatherlink.com 1.10,2013-02-28 01:04:00,
2013-02-28 01:19:00,-999.0,-99.9,30.28,North,-999,-999.0,-999.0,-999,0.00,,,0.00,weatherlink.com 1.10,2013-02-28 01:19:00,
2013-02-28 01:34:00,-999.0,-99.9,30.28,North,-999,-999.0,-999.0,-999,0.00,,,0.00,weatherlink.com 1.10,2013-02-28 01:34:00,
2013-02-28 01:49:00,-999.0,-99.9,30.27,North,-999,-999.0,-999.0,-999,0.00,,,0.00,weatherlink.com 1.10,2013-02-28 01:49:00,
2013-02-28 02:04:00,-999.0,-99.9,30.27,North,-999,-999.0,-999.0,-999,0.00,,,0.00,weatherlink.com 1.10,2013-02-28 02:04:00,
2013-02-28 02:19:00,-999.0,-99.9,30.27,North,-999,-999.0,-999.0,-999,0.00,,,0.00,weatherlink.com 1.10,2013-02-28 02:19:00,
2013-02-28 02:34:00,-999.0,-99.9,30.26,North,-999,-999.0,-999.0,-999,0.00,,,0.00,weatherlink.com 1.10,2013-02-28 02:34:00,
2013-02-28 02:49:00,-999.0,-99.9,30.26,North,-999,-999.0,-999.0,-999,0.00,,,0.00,weatherlink.com 1.10,2013-02-28 02:49:00,
2013-02-28 03:04:00,-999.0,-99.9,30.26,North,-999,-999.0,-999.0,-999,0.00,,,0.00,weatherlink.com 1.10,2013-02-28 03:04:00,
2013-02-28 03:19:00,-999.0,-99.9,30.25,North,-999,-999.0,-999.0,-999,0.00,,,0.00,weatherlink.com 1.10,2013-02-28 03:19:00,
2013-02-28 03:34:00,-999.0,-99.9,30.25,North,-999,-999.0,-999.0,-999,0.00,,,0.00,weatherlink.com 1.10,2013-02-28 03:34:00,
2013-02-28 03:49:00,-999.0,-99.9,30.25,North,-999,-999.0,-999.0,-999,0.00,,,0.00,weatherlink.com 1.10,2013-02-28 03:49:00,
2013-02-28 04:05:00,-999.0,-99.9,30.25,North,-999,-999.0,-999.0,-999,0.00,,,0.00,weatherlink.com 1.10,2013-02-28 04:05:00,
2013-02-28 04:50:00,-999.0,-99.9,30.24,North,-999,-999.0,-999.0,-999,0.00,,,0.00,weatherlink.com 1.10,2013-02-28 04:50:00,
2013-02-28 05:05:00,-999.0,-99.9,30.24,North,-999,-999.0,-999.0,-999,0.00,,,0.00,weatherlink.com 1.10,2013-02-28 05:05:00,
2013-02-28 05:20:00,-999.0,-99.9,30.24,North,-999,-999.0,-999.0,-999,0.00,,,0.00,weatherlink.com 1.10,2013-02-28 05:20:00,
2013-02-28 05:35:00,-999.0,-99.9,30.24,North,-999,-999.0,-999.0,-999,0.00,,,0.00,weatherlink.com 1.10,2013-02-28 05:35:00,
2013-02-28 05:50:00,-999.0,-99.9,30.25,North,-999,-999.0,-999.0,-999,0.00,,,0.00,weatherlink.com 1.10,2013-02-28 05:50:00,
2013-02-28 06:05:00,-999.0,-99.9,30.24,North,-999,-999.0,-999.0,-999,0.00,,,0.00,weatherlink.com 1.10,2013-02-28 06:05:00,
2013-02-28 06:20:00,-999.0,-99.9,30.24,North,-999,-999.0,-999.0,-999,0.00,,,0.00,weatherlink.com 1.10,2013-02-28 06:20:00,
2013-02-28 06:35:00,-999.0,-99.9,30.24,North,-999,-999.0,-999.0,-999,0.00,,,0.00,weatherlink.com 1.10,2013-02-28 06:35:00,
2013-02-28 06:50:00,-999.0,-99.9,30.25,North,-999,-999.0,-999.0,-999,0.00,,,0.00,weatherlink.com 1.10,2013-02-28 06:50:00,
2013-02-28 07:05:00,-999.0,-99.9,30.24,North,-999,-999.0,-999.0,-999,0.00,,,0.00,weatherlink.com 1.10,2013-02-28 07:05:00,
2013-02-28 07:21:00,-999.0,-99.9,30.25,North,-999,-999.0,-999.0,-999,0.00,,,0.00,weatherlink.com 1.10,2013-02-28 07:21:00,
2013-02-28 07:36:00,-999.0,-99.9,30.25,North,-999,-999.0,-999.0,-999,0.00,,,0.00,weatherlink.com 1.10,2013-02-28 07:36:00,
2013-02-28 07:51:00,-999.0,-99.9,30.25,North,-999,-999.0,-999.0,-999,0.00,,,0.00,weatherlink.com 1.10,2013-02-28 07:51:00,
2013-02-28 08:06:00,-999.0,-99.9,30.25,North,-999,-999.0,-999.0,-999,0.00,,,0.00,weatherlink.com 1.10,2013-02-28 08:06:00,
2013-02-28 08:21:00,-999.0,-99.9,30.26,North,-999,-999.0,-999.0,-999,0.00,,,0.00,weatherlink.com 1.10,2013-02-28 08:21:00,
2013-02-28 08:36:00,-999.0,-99.9,30.26,North,-999,-999.0,-999.0,-999,0.00,,,0.00,weatherlink.com 1.10,2013-02-28 08:36:00,
2013-02-28 08:51:00,-999.0,-99.9,30.26,North,-999,-999.0,-999.0,-999,0.00,,,0.00,weatherlink.com 1.10,2013-02-28 08:51:00,
2013-02-28 09:06:00,-999.0,-99.9,30.26,North,-999,-999.0,-999.0,-999,0.00,,,0.00,weatherlink.com 1.10,2013-02-28 09:06:00,
2013-02-28 09:21:00,-999.0,-99.9,30.25,North,-999,-999.0,-999.0,-999,0.00,,,0.00,weatherlink.com 1.10,2013-02-28 09:21:00,
2013-02-28 09:36:00,39.5,35.0,30.26,SE,145,1.0,2.0,85,0.00,,,0.00,weatherlink.com 1.10,2013-02-28 09:36:00,
2013-02-28 09:51:00,39.6,37.0,30.25,SSE,148,2.0,2.0,91,0.00,,,0.00,weatherlink.com 1.10,2013-02-28 09:51:00,
2013-02-28 10:06:00,45.6,44.0,30.25,SE,138,2.0,3.0,92,0.00,,,0.00,weatherlink.com 1.10,2013-02-28 10:06:00,
2013-02-28 10:21:00,47.0,46.0,30.25,ESE,123,0.0,3.0,95,0.00,,,0.00,weatherlink.com 1.10,2013-02-28 10:21:00,
2013-02-28 10:36:00,41.1,37.0,30.25,ESE,110,0.0,1.0,85,0.00,,,0.00,weatherlink.com 1.10,2013-02-28 10:36:00,
2013-02-28 10:51:00,40.5,38.0,30.24,NE,42,0.0,1.0,89,0.00,,,0.00,weatherlink.com 1.10,2013-02-28 10:51:00,
2013-02-28 11:06:00,51.0,49.0,30.24,ESE,109,2.0,3.0,93,0.00,,,0.00,weatherlink.com 1.10,2013-02-28 11:06:00,
2013-02-28 11:21:00,53.7,48.0,30.24,SE,125,1.0,3.0,80,0.00,,,0.00,weatherlink.com 1.10,2013-02-28 11:21:00,
2013-02-28 11:37:00,54.7,50.0,30.24,ESE,120,2.0,3.0,84,0.00,,,0.00,weatherlink.com 1.10,2013-02-28 11:37:00,
2013-02-28 11:52:00,52.9,49.0,30.23,ESE,117,2.0,4.0,85,0.00,,,0.00,weatherlink.com 1.10,2013-02-28 11:52:00,
2013-02-28 12:07:00,50.4,40.0,30.23,ESE,122,2.0,4.0,67,0.00,,,0.00,weatherlink.com 1.10,2013-02-28 12:07:00,
2013-02-28 12:22:00,45.7,40.0,30.22,SE,135,0.0,3.0,79,0.00,,,0.00,weatherlink.com 1.10,2013-02-28 12:22:00,
2013-02-28 12:37:00,46.7,44.0,30.22,SE,136,1.0,3.0,91,0.00,,,0.00,weatherlink.com 1.10,2013-02-28 12:37:00,
2013-02-28 12:52:00,59.9,54.0,30.21,ENE,70,2.0,6.0,82,0.00,,,0.00,weatherlink.com 1.10,2013-02-28 12:52:00,
2013-02-28 13:07:00,45.8,39.0,30.21,East,79,4.0,5.0,76,0.00,,,0.00,weatherlink.com 1.10,2013-02-28 13:07:00,
2013-02-28 13:22:00,42.5,39.0,30.21,ESE,112,3.0,5.0,86,0.00,,,0.00,weatherlink.com 1.10,2013-02-28 13:22:00,
2013-02-28 13:37:00,42.5,39.0,30.21,NE,54,3.0,6.0,87,0.00,,,0.00,weatherlink.com 1.10,2013-02-28 13:37:00,
2013-02-28 13:52:00,42.8,40.0,30.21,East,98,5.0,8.0,88,0.00,,,0.00,weatherlink.com 1.10,2013-02-28 13:52:00,
2013-02-28 14:07:00,43.1,40.0,30.20,ESE,120,5.0,9.0,87,0.00,,,0.00,weatherlink.com 1.10,2013-02-28 14:07:00,
2013-02-28 14:22:00,43.1,39.0,30.20,ESE,112,4.0,10.0,86,0.00,,,0.00,weatherlink.com 1.10,2013-02-28 14:22:00,
2013-02-28 14:37:00,43.4,40.0,30.20,ESE,123,2.0,9.0,86,0.00,,,0.00,weatherlink.com 1.10,2013-02-28 14:37:00,
2013-02-28 14:52:00,43.7,40.0,30.20,ENE,72,5.0,9.0,85,0.00,,,0.00,weatherlink.com 1.10,2013-02-28 14:52:00,
2013-02-28 15:07:00,43.6,39.0,30.19,ESE,123,2.0,7.0,85,0.00,,,0.00,weatherlink.com 1.10,2013-02-28 15:07:00,
2013-02-28 15:22:00,43.5,39.0,30.19,SE,132,2.0,7.0,85,0.00,,,0.00,weatherlink.com 1.10,2013-02-28 15:22:00,
2013-02-28 15:37:00,43.4,39.0,30.19,East,86,4.0,8.0,84,0.00,,,0.00,weatherlink.com 1.10,2013-02-28 15:37:00,
2013-02-28 15:52:00,43.6,39.0,30.19,NE,39,4.0,6.0,85,0.00,,,0.00,weatherlink.com 1.10,2013-02-28 15:52:00,
2013-02-28 16:07:00,43.6,39.0,30.19,ENE,72,3.0,8.0,85,0.00,,,0.00,weatherlink.com 1.10,2013-02-28 16:07:00,
2013-02-28 16:22:00,43.6,39.0,30.19,NE,50,7.0,7.0,84,0.00,,,0.00,weatherlink.com 1.10,2013-02-28 16:22:00,
2013-02-28 16:37:00,43.5,39.0,30.19,ESE,111,1.0,7.0,85,0.00,,,0.00,weatherlink.com 1.10,2013-02-28 16:37:00,
2013-02-28 16:52:00,43.3,39.0,30.19,SE,139,2.0,4.0,86,0.00,,,0.00,weatherlink.com 1.10,2013-02-28 16:52:00,
2013-02-28 17:07:00,43.5,40.0,30.18,East,96,1.0,3.0,87,0.00,,,0.00,weatherlink.com 1.10,2013-02-28 17:07:00,
2013-02-28 17:22:00,43.4,40.0,30.18,ESE,123,0.0,3.0,87,0.00,,,0.00,weatherlink.com 1.10,2013-02-28 17:22:00,
2013-02-28 17:37:00,43.8,40.0,30.18,ESE,120,0.0,2.0,86,0.00,,,0.00,weatherlink.com 1.10,2013-02-28 17:37:00,
2013-02-28 17:52:00,43.6,39.0,30.18,ESE,120,0.0,0.0,85,0.00,,,0.00,weatherlink.com 1.10,2013-02-28 17:52:00,
2013-02-28 18:07:00,42.7,39.0,30.18,ESE,120,0.0,1.0,88,0.00,,,0.00,weatherlink.com 1.10,2013-02-28 18:07:00,
2013-02-28 18:22:00,42.2,39.0,30.18,SSE,156,0.0,1.0,88,0.00,,,0.00,weatherlink.com 1.10,2013-02-28 18:22:00,
2013-02-28 18:37:00,41.4,38.0,30.18,SSW,212,1.0,2.0,89,0.00,,,0.00,weatherlink.com 1.10,2013-02-28 18:37:00,
2013-02-28 18:52:00,40.5,38.0,30.18,SW,215,0.0,3.0,90,0.00,,,0.00,weatherlink.com 1.10,2013-02-28 18:52:00,
2013-02-28 19:07:00,40.1,38.0,30.18,SSW,210,1.0,2.0,91,0.00,,,0.00,weatherlink.com 1.10,2013-02-28 19:07:00,
2013-02-28 19:22:00,39.9,38.0,30.18,SSW,210,0.0,0.0,91,0.00,,,0.00,weatherlink.com 1.10,2013-02-28 19:22:00,
2013-02-28 19:37:00,39.8,38.0,30.18,NE,56,0.0,0.0,92,0.00,,,0.00,weatherlink.com 1.10,2013-02-28 19:37:00,
2013-02-28 19:52:00,39.8,38.0,30.18,SSE,166,0.0,0.0,92,0.00,,,0.00,weatherlink.com 1.10,2013-02-28 19:52:00,
2013-02-28 20:07:00,39.4,38.0,30.18,SSE,166,0.0,0.0,93,0.00,,,0.00,weatherlink.com 1.10,2013-02-28 20:07:00,
2013-02-28 20:22:00,38.9,37.0,30.18,SSE,165,0.0,0.0,92,0.00,,,0.00,weatherlink.com 1.10,2013-02-28 20:22:00,
2013-02-28 20:37:00,38.3,37.0,30.18,SSE,165,0.0,0.0,93,0.00,,,0.00,weatherlink.com 1.10,2013-02-28 20:37:00,
2013-02-28 20:52:00,-999.0,-99.9,30.19,North,-999,-999.0,-999.0,-999,0.00,,,0.00,weatherlink.com 1.10,2013-02-28 20:52:00,
2013-02-28 21:07:00,-999.0,-99.9,30.19,North,-999,-999.0,-999.0,-999,0.00,,,0.00,weatherlink.com 1.10,2013-02-28 21:07:00,
2013-02-28 21:22:00,-999.0,-99.9,30.19,North,-999,-999.0,-999.0,-999,0.00,,,0.00,weatherlink.com 1.10,2013-02-28 21:22:00,
2013-02-28 21:37:00,-999.0,-99.9,30.19,North,-999,-999.0,-999.0,-999,0.00,,,0.00,weatherlink.com 1.10,2013-02-28 21:37:00,
2013-02-28 21:53:00,-999.0,-99.9,30.19,North,-999,-999.0,-999.0,-999,0.00,,,0.00,weatherlink.com 1.10,2013-02-28 21:53:00,
2013-02-28 22:08:00,-999.0,-99.9,30.19,North,-999,-999.0,-999.0,-999,0.00,,,0.00,weatherlink.com 1.10,2013-02-28 22:08:00,
2013-02-28 22:23:00,-999.0,-99.9,30.20,North,-999,-999.0,-999.0,-999,0.00,,,0.00,weatherlink.com 1.10,2013-02-28 22:23:00,
2013-02-28 22:38:00,-999.0,-99.9,30.20,North,-999,-999.0,-999.0,-999,0.00,,,0.00,weatherlink.com 1.10,2013-02-28 22:38:00,
2013-02-28 22:53:00,-999.0,-99.9,30.19,North,-999,-999.0,-999.0,-999,0.00,,,0.00,weatherlink.com 1.10,2013-02-28 22:53:00,
2013-02-28 23:08:00,-999.0,-99.9,30.20,North,-999,-999.0,-999.0,-999,0.00,,,0.00,weatherlink.com 1.10,2013-02-28 23:08:00,
2013-02-28 23:23:00,-999.0,-99.9,30.20,North,-999,-999.0,-999.0,-999,0.00,,,0.00,weatherlink.com 1.10,2013-02-28 23:23:00,
2013-02-28 23:38:00,-999.0,-99.9,30.20,North,-999,-999.0,-999.0,-999,0.00,,,0.00,weatherlink.com 1.10,2013-02-28 23:38:00,
2013-02-28 23:53:00,-999.0,-99.9,30.19,North,-999,-999.0,-999.0,-999,0.00,,,0.00,weatherlink.com 1.10,2013-02-28 23:53:00,